DELTA 1 DEB, 19360

Orbit data source: Space-Track

DELTA 1 DEB, 19360 is space debris in SSO originally from a launch on Tue, 06 Nov 1973 UTC launched from the Air Force Western Test Range (AFWTR). Debris objects in space refer to the collection of defunct objects orbiting the Earth. Examples of debris include non-operational satellites, rocket bodies, and fragments generated from explosions, collisions, or faulty payload assembly.

Loading next visibility...
Identifier
19360, 1973-086HE
Orbit
SSO
Country
Flag of USUS
Related business
Manufacturer
Unknown
Mission
Spacecraft
Bus & Motor
Unknown
Mass
Unknown
Launch date (UTC)
1973-11-06 (53 years ago)
Launch vehicle
Unknown
Launch site
Air Force Western Test Range (AFWTR)
Object type
Payload
Rocket body
Debris
Shape & HBR
Unknown shape, 0.1 m
Radar Cross Section
Medium (>0.1 m² and <1 m²)

Expand to show TLE details & history
Last TLE update: 2 days ago

TLE from 2 days ago
0 DELTA 1 DEB
1 19360U 73086HE  26262.17928831  .00000487  00000-0  31743-2 0  9999
2 19360 101.8887 341.5525 0044942 297.7507  89.3270 12.57304049891641
Epoch: 2026-09-19T04:18Z
TLE epoch observation values (Epoch: 2026-09-19T04:18:10.509Z)
Latitude
26.98954°
Longitude
-87.2075°
Altitude
1,436.839 km
Speed
7.146 km/s
True Right ascension
22h 21m 42s
True Declination
26° 51' 46"
Sunlit
Object was in full shadow at epoch
Visualization orbit readout
Latitude
Unknown
Longitude
Unknown
Altitude
Unknown
Speed
Unknown
Apparent Right ascension
Unknown
Apparent Declination
Unknown
Sunlit
N/A
Visualization observer readout
Local Sidereal Time
09:46:52
Azimuth
Unknown
Elevation
Unknown
Doppler factor
Unknown
Orbital elements
Apogee altitude
1,466.736 km
Perigee altitude
1,396.539 km
Semi-major axis
7,809.774 km
Eccentricity
0.00449
Inclination
101.8887°
RAAN
341.5525°
Arg. of periapsis
297.7507°
True anomaly
89.84199°
Mean anomaly
89.327°
Eccentric anomaly
89.58449°
Mean motion
3.14474 °/min
Orbital period
114.48 mins
BSTAR
0.0031743
Loading maneuver chart data...
Computing Atmospheric mass density...
Loading historical data...
Loading historical data...
Loading historical data...
Loading historical data...
Loading historical data...
Loading historical data...
Loading historical data...

Documentation

Showing up to 5 results
|